Showing default

TIBA-1, 44800

Orbit data source: Space-Track

TIBA-1, 44800 is a payload satellite owned by EgSA (EG) in GEO that was launched on Tue, 26 Nov 2019 UTC via an ARIANE 5ECA launch vehicle from the French Guiana (FRGUI). Payload-class satellites include a variety of spacecraft equipped with specific instruments for various scientific and technological missions. These include communications satellites like Starlink; space stations such as the ISS; scientific satellites like the Hubble; Earth observation satellites from companies like Planet Labs, Umbra, and HawkEye 360; GPS; miniature CubeSats for education and research; and military/defense satellites.

Not visible in the next 10 days
Identifier
44800, 2019-080A
Orbit
GEO
Country
Flag of EGEG / EGYP
Related business
Manufacturer
Airbus/Toulouse
Mission
Operational Civil Communications
Bus & Motor
EUROSTAR 3000, R-4D?
Mass
5,600 kg wet, ~3,000 kg dry
Launch date (UTC)
2019-11-26 (6 years ago)
Launch vehicle
ARIANE 5ECA
Launch site
French Guiana (FRGUI)
Object type
Payload
Rocket body
Debris
Shape & HBR
Box + 2 Pan, Unknown HBR
Radar Cross Section
33.163 m²

Expand to show TLE details & history
Last TLE update: 1 day ago

TLE from 1 day ago
0 TIBA-1
1 44800U 19080A   26129.54900892  .00000164  00000-0  00000-0 0  9992
2 44800   0.0597  18.7922 0002064  38.2578  43.4682  1.00274022 23676
Epoch: 2026-05-09T13:10Z
TLE epoch observation values (Epoch: 2026-05-09T13:10:34.370Z)
Latitude
0.05422°
Longitude
35.51776°
Altitude
35,779.119 km
Speed
3.075 km/s
True Right ascension
06h 42m 06s
True Declination
0° 03' 15"
Sunlit
Object was in daylight at epoch
Visualization orbit readout
Latitude
Unknown
Longitude
Unknown
Altitude
Unknown
Speed
Unknown
Apparent Right ascension
Unknown
Apparent Declination
Unknown
Sunlit
N/A
Visualization observer readout
Local Sidereal Time
21:34:32
Azimuth
Unknown
Elevation
Unknown
Doppler factor
Unknown
Orbital elements
Apogee altitude
35,795.741 km
Perigee altitude
35,778.335 km
Semi-major axis
42,165.175 km
Eccentricity
0.00021
Inclination
0.0597°
RAAN
18.7922°
Arg. of periapsis
38.2578°
True anomaly
43.48447°
Mean anomaly
43.4682°
Eccentric anomaly
43.47634°
Mean motion
0.25068 °/min
Orbital period
1,436.12 mins
BSTAR
0
Loading maneuver chart data...
Computing Atmospheric mass density...
Loading historical data...
Loading historical data...
Loading historical data...
Loading historical data...
Loading historical data...
Loading historical data...
Loading historical data...
Other satellites on launch #80 in the year 2019 (2019-11-26 UTC)

Documentation

Showing up to 5 results
|